Temperature
16 16 16 16 16 16 15 15 15 15 15 15 15 15 15 14 14 14 14 14 14 14 14 13 13 13 13 13 13 13 13 12 12 12 12 12 12 12 12 12 11 11 11
17 16 16 16 16 16 16 16 15 15 15 15 15 15 15 14 14 14 14 14 14 14 14 13 13 13 13 13 13 13 12 12 12 12 12 12 12 11 11 11 11 11 11
17 16 16 16 16 16 16 16 15 15 15 15 15 15 15 14 14 14 14 14 14 14 13 13 13 13 13 13 13 12 12 12 12 12 12 12 11 11 11 11 11 11 11
17 16 16 16 16 16 16 16 16 15 15 15 15 15 15 14 14 14 14 14 14 14 13 13 13 13 13 13 12 12 12 12 12 11 11 11 11 11 11 11 11 11 10
17 16 16 16 16 16 16 16 16 15 15 15 15 15 15 14 14 14 14 14 14 13 13 13 13 13 13 12 12 12 12 12 12 11 11 11 11 11 11 10 10 10 10
17 16 16 16 16 16 16 16 16 15 15 15 15 15 15 14 14 14 14 14 13 13 13 13 13 13 12 12 12 12 12 11 11 11 11 11 11 11 10 10 10 10 10
17 16 16 16 16 16 16 16 16 15 15 15 15 15 14 14 14 14 13 13 13 13 13 13 12 12 12 12 12 12 11 11 11 11 11 11 11 10 10 10 9 9 9
17 17 17 16 16 16 16 16 16 15 15 15 15 15 14 14 14 14 13 13 13 13 13 12 12 12 12 12 12 11 11 11 11 11 11 10 10 10 10 9 9 9 9
17 17 17 16 16 16 16 16 15 15 15 15 15 14 14 14 14 13 13 13 13 13 12 12 12 12 12 11 11 11 11 11 11 10 10 10 10 10 9 9 9 9 9
17 17 17 16 16 16 16 15 15 15 15 15 14 14 14 14 13 13 13 13 13 13 12 12 12 12 11 11 11 11 11 11 10 10 10 10 10 9 9 9 9 8 8
17 17 17 16 16 16 16 15 15 15 15 14 14 14 14 14 13 13 13 13 12 12 12 12 12 11 11 11 11 11 10 10 10 10 10 10 9 9 9 9 8 8 8
17 17 17 16 16 16 15 15 15 14 14 14 14 14 14 13 13 13 13 12 12 12 12 12 11 11 11 11 10 10 10 10 10 9 9 9 9 9 9 8 8 8 8
17 16 16 16 16 15 15 15 15 14 14 14 14 14 14 14 13 13 13 12 12 12 12 11 11 11 11 10 10 10 10 9 9 9 9 9 9 9 8 8 8 8 7
16 16 16 16 15 15 15 15 14 14 14 14 14 14 14 13 13 13 12 12 12 12 12 11 11 11 10 10 10 10 9 9 9 9 9 9 8 8 8 8 8 7 7
16 16 15 15 15 15 14 14 14 14 14 14 14 13 13 13 13 13 12 12 12 12 11 11 11 11 11 10 10 10 9 9 9 9 9 8 8 8 8 7 7 7 7
16 15 15 15 14 14 14 14 13 13 13 13 13 13 13 13 12 12 12 12 11 11 11 11 10 10 10 10 10 10 9 9 9 8 8 8 8 7 7 7 7 7 6
15 15 15 14 14 14 13 13 13 13 13 13 13 13 12 12 12 12 12 11 11 11 10 10 10 10 10 10 9 9 9 8 8 8 8 8 7 7 7 7 6 6 6
15 14 14 14 13 13 13 13 13 13 13 13 12 12 12 12 12 11 11 11 11 10 10 10 10 10 9 9 9 9 8 8 8 8 7 7 7 7 6 6 6 6 6
14 14 14 13 13 13 13 12 12 12 12 12 12 12 11 11 11 11 10 10 10 10 10 9 9 9 9 9 9 8 8 8 7 7 7 7 6 6 6 6 5 5 5
14 14 13 13 13 12 12 12 12 11 11 11 11 11 11 11 10 10 10 10 10 9 9 9 9 9 8 8 8 8 8 7 7 7 7 7 6 6 5 5 5 5 5
14 13 13 12 12 12 12 12 11 11 11 11 11 11 10 10 10 10 10 9 9 9 9 9 8 8 8 8 8 7 7 7 7 7 6 6 6 5 5 5 5 4 4
13 13 12 12 12 12 11 11 11 11 11 10 10 10 10 10 9 9 9 9 9 8 8 8 8 8 7 7 7 7 7 7 6 6 6 6 5 5 5 4 4 4 4
13 12 12 12 11 11 11 11 11 10 10 10 10 10 9 9 9 9 9 8 8 8 8 7 7 7 7 7 7 6 6 6 6 6 6 5 5 5 4 4 4 4 3
12 12 12 11 11 11 11 10 10 10 10 9 9 9 9 9 9 8 8 8 8 7 7 7 7 7 7 6 6 6 6 6 5 5 5 5 5 4 4 3 3 3 3
11 11 11 11 10 10 10 10 10 9 9 9 9 9 8 8 8 8 7 7 7 7 7 7 7 6 6 6 6 6 5 5 5 5 4 4 4 4 3 3 3 3 2
11 10 10 10 10 10 9 9 9 9 9 8 8 8 8 8 8 7 7 7 7 7 6 6 6 6 6 6 5 5 5 5 4 4 4 4 4 3 3 3 2 2 2
Wind_Speed
6 5 5 4 4 4 3 3 3 3 3 3 3 3 3 2 2 3 3 3 3 2 2 3 2 2 2 2 1 1 1 2 2 2 1 2 2 3 6 6 6 6 6
6 6 5 4 4 4 4 4 3 3 3 3 4 3 3 3 2 3 2 2 2 2 1 2 1 2 2 2 1 1 1 1 2 1 2 2 2 3 4 4 5 6 6
6 6 5 5 5 5 4 4 4 4 3 3 4 4 3 3 3 3 3 2 2 1 1 1 0 1 1 1 1 1 1 1 1 1 1 2 2 2 3 4 4 5 6
7 7 6 6 6 5 4 4 4 4 4 4 4 4 4 4 4 3 3 3 2 1 1 1 1 1 1 1 1 1 1 2 1 1 1 2 2 2 2 2 4 3 4
7 7 7 6 5 5 5 4 4 4 4 4 4 4 4 4 4 4 4 3 2 1 0 0 1 1 1 2 1 1 2 1 1 1 1 1 2 2 2 2 3 4 3
7 7 5 5 5 5 5 4 4 4 4 4 4 4 4 4 6 7 6 4 3 2 1 1 1 1 1 1 1 2 3 2 2 1 1 2 3 2 2 2 2 3 3
6 6 5 6 5 5 5 5 5 4 4 4 4 4 4 4 6 7 7 5 4 3 2 1 1 0 1 0 0 1 1 0 2 3 3 3 3 3 2 2 2 2 3
6 6 5 6 6 5 5 5 4 3 4 4 4 5 4 4 6 7 7 4 3 3 3 3 2 1 1 2 1 1 1 2 2 1 3 4 3 3 3 2 2 2 4
6 6 6 7 6 6 6 5 4 4 4 3 3 4 4 4 5 6 6 3 2 2 2 2 2 2 2 2 2 1 1 3 3 2 3 3 4 3 1 1 1 1 3
8 7 6 7 7 7 7 5 4 4 4 4 3 3 4 4 5 6 7 3 3 2 1 2 4 3 3 3 3 3 2 3 2 3 3 4 4 3 2 1 2 1 2
6 5 5 6 7 6 5 4 4 4 4 3 3 2 3 4 4 6 7 4 4 3 2 2 3 4 3 3 3 3 3 2 1 1 2 3 3 2 2 2 2 2 2
6 5 5 5 5 5 5 5 4 5 4 3 2 1 1 2 3 5 6 6 6 4 4 3 3 3 3 2 1 2 2 1 0 1 2 3 3 3 3 3 4 5 5
6 5 5 5 4 5 6 6 4 4 4 4 3 3 2 2 2 4 5 5 6 4 3 4 4 3 2 1 2 2 1 0 0 1 2 3 3 4 3 3 3 4 5
6 5 5 5 4 4 4 5 5 5 5 4 4 4 3 2 2 2 2 2 3 3 1 1 2 2 1 1 1 1 1 1 2 3 3 3 3 2 2 2 3 3 3
6 5 5 4 5 4 4 4 5 6 6 6 5 5 4 4 5 5 4 3 3 3 2 1 1 0 1 1 1 2 2 1 2 2 3 3 3 3 3 2 2 2 3
6 5 5 4 4 4 3 1 2 3 4 5 5 5 4 5 4 6 6 5 5 6 4 2 2 2 3 3 3 3 2 3 3 3 3 3 4 4 4 3 2 3 4
6 6 4 5 5 5 4 4 2 1 1 2 3 4 4 4 4 5 5 5 5 6 3 3 3 3 3 3 3 3 3 3 3 3 3 4 4 4 4 4 4 4 5
6 6 5 5 5 5 5 4 4 3 2 1 2 3 4 4 4 4 5 4 2 2 2 3 4 3 3 3 4 4 3 3 2 3 3 4 4 4 4 4 4 5 5
5 4 4 4 4 4 4 3 3 4 3 2 0 1 2 2 2 3 5 2 2 2 3 3 3 3 3 4 4 3 3 3 3 3 4 4 4 4 5 5 5 7 6
5 6 6 4 4 4 4 4 4 3 3 3 3 2 2 2 1 2 2 2 3 3 3 3 3 3 3 3 3 3 3 3 3 4 4 4 4 4 5 6 5 5 6
4 5 6 4 4 4 4 4 4 4 4 3 3 3 5 3 3 3 3 3 3 3 3 3 2 2 2 2 2 3 3 3 4 4 4 4 4 4 5 5 5 6 6
5 4 4 4 4 4 4 4 4 4 4 3 2 2 4 2 2 3 3 3 3 3 2 2 2 2 3 3 3 3 3 4 4 4 4 4 4 4 4 4 5 5 5
5 5 4 3 3 3 3 3 3 3 3 3 2 2 2 2 2 2 3 3 2 2 2 2 2 2 2 2 2 2 3 4 4 4 4 4 4 4 4 5 6 6 6
5 5 5 4 3 3 3 3 3 3 3 3 2 2 2 3 2 2 2 2 2 1 2 2 2 3 3 2 2 3 4 5 4 4 4 4 4 4 4 5 5 6 6
4 4 4 4 4 4 4 3 3 3 3 3 3 3 2 2 2 2 2 2 2 1 1 2 2 2 3 4 3 4 5 5 5 4 4 3 4 4 4 5 5 5 5
4 4 4 3 4 4 4 4 3 3 3 3 3 3 3 2 2 2 2 2 2 2 2 2 2 3 4 4 4 5 5 6 6 6 4 3 4 4 4 4 6 5 6
Wind_Direction
179 181 177 181 180 180 187 196 194 181 165 159 149 139 134 124 115 108 100 97 94 68 56 71 51 44 49 40 59 86 104 133 174 285 295 321 345 352 356 358 2 9 6
179 175 182 180 176 187 200 199 184 178 170 164 151 149 151 150 139 135 132 119 118 105 74 76 46 56 50 39 60 73 104 143 159 235 312 331 333 329 338 341 351 356 356
171 173 179 180 184 199 202 189 178 170 168 163 161 165 169 169 160 158 148 140 137 139 130 119 87 90 50 37 70 73 72 78 126 163 296 312 314 334 344 341 343 342 347
173 176 186 194 196 198 189 182 180 174 174 181 184 185 183 178 170 162 148 138 135 134 151 167 182 180 198 179 117 110 103 79 77 93 342 326 319 326 349 339 336 336 334
175 184 198 196 188 181 183 184 178 178 186 184 178 182 180 179 180 169 163 156 152 140 78 256 228 197 210 186 161 168 136 115 100 93 330 334 323 331 324 313 319 322 317
179 192 192 180 177 180 183 180 176 182 181 174 180 183 189 200 189 180 168 163 163 167 207 284 293 331 304 241 194 161 150 154 176 182 235 260 274 271 277 297 312 338 323
181 185 182 179 180 183 175 171 180 185 179 184 188 184 200 216 200 188 178 163 169 182 195 222 280 339 45 70 69 59 18 279 196 187 210 241 247 242 236 285 282 274 272
183 186 184 181 185 178 169 176 180 176 180 192 197 194 199 217 208 195 179 161 168 188 199 208 217 258 243 163 137 58 340 320 304 232 224 247 249 235 215 232 246 279 292
189 194 189 184 180 175 178 184 177 173 186 196 196 193 198 220 207 191 168 152 171 207 220 214 211 233 245 175 147 166 312 316 324 308 286 292 295 289 235 98 360 333 311
202 202 190 182 180 183 187 180 172 173 189 186 192 196 199 216 210 193 173 163 180 209 235 246 235 228 231 193 175 180 236 282 313 342 347 340 331 319 299 214 210 250 284
196 185 178 181 184 181 172 167 164 166 166 173 188 206 211 218 214 199 182 174 192 199 213 235 242 226 229 214 190 197 235 253 288 310 325 327 330 325 313 286 240 221 241
168 167 174 179 180 171 162 164 160 160 165 175 180 215 242 240 227 219 203 197 190 190 212 220 225 216 218 215 211 231 249 284 327 329 321 312 307 302 297 296 274 251 247
157 167 173 169 170 162 164 165 162 164 170 182 184 208 239 240 239 227 213 206 199 199 215 208 206 208 210 235 249 256 268 248 243 290 286 284 280 283 300 310 310 297 290
165 171 166 164 164 161 163 167 170 177 183 188 193 210 225 228 225 217 207 202 194 199 214 193 183 185 203 247 277 293 277 233 228 252 271 278 294 304 301 301 305 312 309
168 170 168 169 169 170 175 183 185 194 190 190 201 199 198 223 232 203 187 196 195 191 153 111 100 115 266 283 292 287 278 271 263 269 273 286 294 295 296 301 297 299 284
160 168 171 170 168 168 169 176 217 202 200 195 193 187 212 217 205 195 199 194 183 166 142 165 207 219 231 243 255 267 263 256 255 257 263 269 278 284 292 300 293 284 283
164 168 167 170 172 173 175 180 198 261 188 201 207 204 208 200 190 190 186 179 169 155 164 203 218 228 235 239 244 249 257 258 254 255 264 269 276 282 285 287 287 285 283
159 163 164 174 177 180 185 190 190 190 202 253 251 220 206 197 191 183 161 131 129 163 207 222 232 236 241 244 247 251 260 269 269 268 271 276 277 282 285 285 281 279 283
160 164 166 167 172 176 175 176 183 189 195 209 209 235 203 185 170 165 148 152 185 206 225 239 245 245 243 242 245 248 250 256 262 263 268 270 272 275 280 282 283 284 283
166 166 161 163 168 168 169 174 179 185 190 194 206 211 163 130 147 175 185 194 199 212 220 233 244 247 248 249 246 245 250 257 261 262 266 268 269 269 274 278 280 283 282
163 168 162 161 174 178 180 186 187 187 194 205 216 206 183 183 193 195 200 206 215 224 226 230 240 249 250 252 253 254 253 260 262 266 269 270 272 275 276 275 277 278 282
159 163 168 172 176 179 185 186 184 187 196 203 214 203 191 185 193 200 210 218 222 221 222 214 227 238 244 242 239 249 261 266 266 267 269 272 273 275 280 283 285 285 285
158 159 164 169 170 172 173 177 181 187 191 196 190 179 187 204 209 212 216 214 213 217 212 206 225 256 260 256 249 244 255 268 272 268 268 272 275 277 278 279 283 290 289
162 166 170 172 170 172 180 188 192 193 190 190 190 193 202 208 210 213 218 214 215 224 205 198 212 230 245 261 274 275 278 283 283 274 267 270 273 278 280 284 285 288 286
166 171 173 175 177 181 184 188 191 192 193 194 195 197 202 206 211 212 208 204 207 222 231 217 222 236 245 252 264 276 281 285 290 294 288 276 277 277 280 283 289 294 290
172 174 176 176 178 182 184 188 192 193 197 201 199 198 199 202 211 213 206 206 213 225 240 238 241 248 258 261 266 272 279 287 292 291 290 281 278 279 286 286 288 291 293
Height
1553 1555 1557 1559 1560 1561 1562 1563 1564 1565 1565 1565 1565 1565 1565 1565 1565 1565 1565 1564 1564 1564 1564 1564 1563 1563 1562 1562 1561 1561 1560 1560 1558 1558 1557 1556 1555 1553 1551 1550 1548 1546 1544
1551 1553 1555 1557 1559 1560 1561 1562 1563 1564 1565 1565 1565 1565 1565 1565 1565 1565 1565 1564 1564 1564 1564 1563 1563 1562 1562 1561 1560 1560 1559 1558 1558 1556 1556 1555 1553 1552 1550 1549 1547 1545 1543
1549 1551 1553 1555 1557 1558 1559 1561 1562 1563 1564 1564 1564 1564 1564 1564 1564 1564 1564 1564 1564 1564 1564 1563 1563 1562 1561 1560 1560 1559 1558 1557 1556 1555 1554 1553 1552 1551 1549 1548 1546 1544 1542
1547 1549 1551 1553 1554 1556 1558 1559 1560 1561 1562 1563 1563 1564 1564 1564 1564 1564 1564 1564 1563 1563 1563 1562 1562 1561 1560 1560 1559 1558 1557 1556 1555 1554 1553 1552 1550 1549 1548 1546 1544 1543 1541
1544 1546 1548 1550 1552 1554 1555 1557 1558 1559 1560 1561 1562 1562 1562 1563 1563 1563 1563 1563 1563 1562 1562 1562 1561 1560 1560 1559 1558 1557 1556 1555 1554 1553 1551 1550 1549 1547 1546 1544 1543 1541 1539
1541 1543 1546 1548 1549 1551 1553 1554 1556 1557 1558 1559 1560 1560 1561 1561 1561 1562 1562 1562 1561 1561 1561 1560 1560 1559 1559 1558 1557 1556 1555 1554 1552 1551 1550 1549 1547 1546 1545 1543 1541 1539 1537
1538 1540 1543 1545 1546 1548 1550 1552 1553 1554 1555 1556 1557 1558 1558 1559 1560 1560 1560 1560 1560 1559 1559 1559 1558 1558 1557 1556 1555 1555 1554 1552 1552 1550 1548 1547 1546 1544 1543 1541 1540 1538 1536
1536 1538 1540 1542 1544 1546 1547 1549 1550 1552 1553 1554 1555 1555 1556 1557 1557 1558 1558 1558 1558 1558 1557 1557 1557 1556 1556 1555 1554 1553 1552 1551 1550 1548 1547 1546 1544 1543 1541 1540 1538 1536 1535
1532 1535 1537 1539 1540 1542 1544 1545 1547 1549 1550 1551 1552 1553 1553 1554 1555 1555 1555 1555 1555 1555 1555 1555 1555 1554 1554 1553 1552 1550 1549 1549 1548 1547 1545 1544 1542 1541 1539 1538 1536 1534 1532
1529 1531 1534 1536 1537 1539 1541 1543 1544 1546 1547 1549 1550 1550 1551 1552 1552 1552 1553 1553 1553 1553 1553 1552 1552 1552 1551 1550 1549 1548 1547 1546 1545 1544 1543 1541 1540 1538 1537 1535 1534 1532 1529
1526 1529 1531 1533 1535 1536 1538 1540 1542 1543 1545 1546 1547 1548 1548 1549 1550 1550 1550 1550 1550 1550 1550 1549 1549 1549 1549 1548 1547 1546 1545 1544 1542 1541 1539 1538 1537 1536 1534 1533 1531 1530 1528
1524 1526 1527 1530 1532 1533 1535 1537 1539 1540 1542 1543 1544 1545 1546 1546 1547 1547 1547 1547 1547 1547 1547 1547 1547 1546 1546 1545 1544 1543 1542 1541 1540 1538 1536 1535 1534 1533 1531 1530 1528 1527 1525
1520 1522 1524 1526 1528 1530 1532 1533 1535 1537 1538 1539 1540 1541 1542 1543 1544 1544 1544 1544 1544 1544 1544 1544 1544 1543 1543 1542 1541 1541 1539 1538 1536 1535 1533 1532 1531 1530 1528 1526 1525 1523 1521
1517 1519 1521 1523 1525 1527 1528 1530 1531 1533 1534 1535 1536 1537 1538 1539 1540 1540 1540 1541 1541 1541 1541 1541 1541 1540 1540 1539 1538 1537 1536 1535 1534 1532 1530 1529 1528 1526 1524 1523 1520 1519 1516
1515 1516 1518 1520 1522 1523 1525 1527 1528 1530 1531 1532 1533 1534 1534 1535 1536 1537 1537 1537 1537 1538 1537 1537 1537 1536 1536 1535 1534 1533 1533 1532 1530 1529 1527 1526 1524 1522 1521 1519 1517 1515 1512
1511 1513 1515 1517 1519 1520 1522 1524 1525 1527 1528 1529 1530 1531 1531 1532 1533 1533 1534 1534 1534 1534 1533 1533 1533 1532 1532 1531 1530 1529 1529 1527 1526 1525 1524 1522 1520 1518 1516 1515 1513 1511 1508
1508 1510 1512 1513 1515 1517 1518 1520 1521 1523 1524 1526 1527 1527 1528 1528 1529 1529 1530 1530 1530 1530 1529 1528 1528 1528 1528 1527 1526 1526 1525 1524 1523 1521 1519 1518 1516 1514 1512 1510 1509 1506 1504
1506 1508 1509 1510 1512 1513 1515 1516 1518 1519 1520 1521 1522 1523 1524 1524 1525 1525 1525 1525 1525 1525 1524 1524 1524 1524 1524 1523 1522 1522 1521 1520 1518 1517 1515 1513 1512 1510 1508 1506 1504 1502 1500
1504 1505 1506 1508 1509 1510 1512 1513 1514 1515 1516 1517 1518 1519 1520 1520 1520 1521 1521 1521 1520 1520 1520 1520 1520 1520 1519 1519 1518 1517 1516 1515 1514 1512 1511 1509 1507 1505 1503 1501 1499 1497 1495
1501 1502 1504 1505 1506 1507 1508 1509 1510 1511 1512 1513 1514 1515 1515 1516 1515 1516 1516 1516 1516 1516 1516 1516 1516 1515 1515 1514 1513 1513 1511 1510 1509 1508 1506 1504 1503 1501 1498 1496 1494 1492 1489
1498 1500 1501 1502 1503 1504 1505 1506 1507 1508 1508 1509 1510 1511 1512 1512 1512 1512 1512 1512 1512 1512 1512 1512 1511 1511 1510 1509 1509 1507 1506 1505 1504 1503 1501 1499 1498 1495 1493 1491 1489 1487 1484
1495 1496 1498 1499 1500 1501 1502 1503 1503 1504 1505 1506 1506 1507 1508 1508 1508 1508 1508 1508 1508 1508 1508 1507 1507 1506 1505 1505 1504 1503 1501 1500 1499 1497 1496 1494 1492 1490 1488 1486 1484 1481 1479
1491 1493 1494 1495 1497 1497 1498 1499 1500 1500 1501 1502 1502 1503 1503 1504 1504 1504 1504 1504 1503 1503 1503 1503 1502 1501 1501 1500 1499 1498 1497 1495 1494 1493 1491 1489 1487 1485 1483 1480 1478 1475 1473
1488 1489 1490 1491 1492 1493 1494 1495 1496 1497 1497 1498 1499 1499 1499 1499 1499 1499 1499 1499 1499 1499 1498 1498 1497 1497 1496 1495 1494 1493 1492 1491 1489 1488 1486 1484 1481 1479 1477 1474 1472 1470 1468
1484 1485 1486 1487 1488 1489 1490 1491 1492 1493 1494 1494 1495 1495 1495 1495 1495 1495 1495 1494 1494 1494 1494 1493 1493 1492 1491 1490 1489 1488 1487 1486 1484 1482 1480 1478 1476 1474 1471 1469 1467 1464 1462
1480 1481 1482 1483 1484 1485 1486 1487 1488 1489 1489 1490 1490 1491 1491 1491 1491 1490 1490 1490 1490 1489 1489 1488 1488 1487 1486 1485 1484 1483 1482 1480 1479 1477 1475 1473 1470 1468 1466 1464 1461 1459 1457